Dayton, OH

10:33 AM EST on February 19, 2017 (GMT -0500)
Wright-Patterson Air Force Base

Weather History for KFFO - February, 2014

Change the Weather History Date:

Saturday, February 8, 2014

  Actual Average Record
Temperature  
Mean Temperature 14 °F -  
Max Temperature 23 °F 39 °F 62 °F (2001)
Min Temperature 4 °F 22 °F -1 °F (2007)
Degree Days  
Heating Degree Days 52    
Moisture  
Dew Point 7 °F    
Average Humidity 70    
Maximum Humidity 82    
Minimum Humidity 48    
Precipitation  
Precipitation 0.00 in - - ()
Snow  
Snow 0.00 in - - ()
Snow Depth 3.00 in    
Sea Level Pressure  
Sea Level Pressure 30.30 in    
Wind  
Wind Speed 3 mph (ESE)    
Max Wind Speed 8 mph    
Max Gust Speed -    
Visibility 10 miles    
Events      
Averages and records for this station are not official NWS values.
T = Trace of Precipitation, MM = Missing Value Source: NWS Daily Summary

Daily Weather History Graph

Daily Weather History Graph

Search for Another Location

Airport or City:

Trip Planner

Search our weather history database for the weather conditions in past years. The results will help you decide how hot, cold, wet, or windy it might be!

Date:

Astronomy

Feb. 08, 2014 Rise Set
Actual Time 7:37 AM EST 6:04 PM EST
Civil Twilight 7:09 AM EST 6:32 PM EST
Nautical Twilight 6:37 AM EST 7:04 PM EST
Astronomical Twilight 6:05 AM EST 7:35 PM EST
Moon 12:57 PM EST (2/8) 2:48 AM EST (2/8)
Length of Visible Light 11h 23m
Length of Day
10h 27m
Waxing Gibbous, 68% of the Moon is Illuminated
Feb 8
Waxing Gibbous
Feb 14
Full
Feb 22
Last Quarter
Mar 1
New
Mar 8
First Quarter

Hourly Weather History & Observations

Time (EST) Temp. Windchill Dew Point Humidity Pressure Visibility Wind Dir Wind Speed Gust Speed Precip Events Conditions
12:58 AM 5.7 °F - 0.1 °F 78% 30.42 in 10.0 mi Calm Calm - N/A   Clear
1:58 AM 4.5 °F - -1.1 °F 78% 30.41 in 10.0 mi North 1.2 mph - N/A   Clear
2:58 AM 4.8 °F - -0.8 °F 78% 30.40 in 10.0 mi Calm Calm - N/A   Clear
3:58 AM 4.3 °F - -1.8 °F 76% 30.40 in 10.0 mi North 2.3 mph - N/A   Clear
4:58 AM 4.1 °F - -1.8 °F 76% 30.40 in 10.0 mi North 2.3 mph - N/A   Partly Cloudy
5:58 AM 4.6 °F - -0.4 °F 80% 30.40 in 10.0 mi NNW 2.3 mph - N/A   Clear
6:58 AM 4.3 °F - -0.9 °F 79% 30.39 in 10.0 mi Calm Calm - N/A   Scattered Clouds
7:58 AM 6.3 °F - -0.9 °F 72% 30.39 in 10.0 mi North 2.3 mph - N/A   Scattered Clouds
8:58 AM 7.5 °F -1.1 °F -0.2 °F 71% 30.38 in 10.0 mi NNE 4.6 mph - N/A   Clear
9:58 AM 14.0 °F 2.9 °F -2.4 °F 48% 30.37 in 10.0 mi East 8.1 mph - N/A   Partly Cloudy
10:58 AM 16.2 °F 9.0 °F 0.1 °F 49% 30.38 in 10.0 mi SSE 4.6 mph - N/A   Clear
11:58 AM 18.0 °F 11.1 °F 1.2 °F 48% 30.35 in 10.0 mi ESE 4.6 mph - N/A   Clear
12:39 PM 19.4 °F 11.5 °F 3.2 °F 49% 30.32 in 10.0 mi East 5.8 mph - N/A   Overcast
12:58 PM 20.1 °F 12.3 °F 3.4 °F 48% 30.32 in 10.0 mi East 5.8 mph - N/A   Mostly Cloudy
1:58 PM 21.2 °F 12.6 °F 7.5 °F 56% 30.28 in 10.0 mi SSE 6.9 mph - N/A   Partly Cloudy
2:58 PM 22.6 °F 14.3 °F 9.1 °F 56% 30.26 in 10.0 mi East 6.9 mph - N/A   Mostly Cloudy
3:38 PM 21.2 °F 12.6 °F 10.4 °F 63% 30.24 in 10.0 mi SE 6.9 mph - N/A   Overcast
3:58 PM 21.9 °F 12.5 °F 11.1 °F 63% 30.24 in 10.0 mi SE 8.1 mph - N/A   Overcast
4:58 PM 21.7 °F 13.2 °F 13.3 °F 70% 30.23 in 10.0 mi SE 6.9 mph - N/A   Overcast
5:58 PM 21.7 °F 13.2 °F 14.2 °F 73% 30.24 in 10.0 mi SSE 6.9 mph - N/A   Overcast
6:58 PM 22.1 °F 14.7 °F 15.4 °F 76% 30.24 in 10.0 mi SE 5.8 mph - N/A   Overcast
7:38 PM 23.0 °F 17.0 °F 15.8 °F 74% 30.22 in 10.0 mi SE 4.6 mph - N/A   Overcast
7:58 PM 22.3 °F 14.9 °F 16.2 °F 77% 30.23 in 10.0 mi SSE 5.8 mph - N/A   Overcast
8:58 PM 22.8 °F - 17.1 °F 79% 30.23 in 10.0 mi South 2.3 mph - N/A   Overcast
9:08 PM 23.0 °F 17.0 °F 17.6 °F 80% 30.16 in 10.0 mi SSE 4.6 mph - N/A   Overcast
9:38 PM 23.0 °F 18.4 °F 17.6 °F 80% 30.16 in 10.0 mi ESE 3.5 mph - N/A   Overcast
9:58 PM 22.8 °F 18.2 °F 17.6 °F 80% 30.20 in 10.0 mi ESE 3.5 mph - N/A   Overcast
10:58 PM 22.8 °F 18.2 °F 18.1 °F 82% 30.20 in 10.0 mi East 3.5 mph - N/A   Overcast
11:58 PM 23.2 °F 17.2 °F 18.5 °F 82% 30.18 in 10.0 mi SE 4.6 mph - N/A   Overcast